Date String (YYYY-MM-DD hh:mm:ss) UTC,Instrument flags,absolute air pressure of the measurement (hPa),sample flow rate (lpm),inlet stack bypass flow (lpm),air temperature of the measurement (°C),ambient temperature measured by the external sensor (°C),aerosol sample conditioner tube jacket temperature (°C),OPC LED temperature (°C),internal box temperature (°C),relative humidity of the measurement (%),span deviation,mass concentration of particles derived from Lorenz-Mie calculation of OPC scattering (μg/m³),mass concentration of particles derived from Lorenz-Mie calculation of OPC scattering (μg/m³),mass concentration of particles derived from Lorenz-Mie calculation of OPC scattering (μg/m³)
DateTimeUTC,F1_M11,P_M11,Q1_M11,Q2_M11,T1_M11,T2_M11,T3_M11,T4_M11,T5_M11,U1_M11,ZSPAN_M11,X2_M11,X0_M11,X1_M11
2024-05-31 09:00:00,SystemResetWarning,0830.0,5.00,000.00,030.7,029.9,000.0,039.2,032.4,020.3,0000.0,0005.00,0013.76,0003.87
2024-05-31 09:01:00,SystemResetWarning,0830.0,5.00,000.00,030.7,029.9,000.0,039.2,032.4,020.3,0000.0,0004.99,0013.41,0003.86
2024-05-31 09:02:00,SystemResetWarning,0830.0,5.00,000.00,030.7,029.9,000.0,039.2,032.4,020.3,0000.0,0005.03,0013.41,0003.86
2024-05-31 09:03:00,SystemResetWarning,0830.0,5.00,000.00,030.7,029.9,000.0,039.2,032.4,020.3,0000.0,0005.02,0014.12,0003.87
2024-05-31 09:04:00,SystemResetWarning,0830.0,5.00,000.00,030.7,029.9,000.0,039.2,032.4,020.3,0000.0,0005.01,0014.72,0003.87
2024-05-31 09:05:00,SystemResetWarning,0830.0,4.99,000.00,030.7,029.9,000.0,039.2,032.4,020.3,0000.0,0004.97,0014.96,0003.87
2024-05-31 09:06:00,SystemResetWarning,0830.0,5.00,000.00,030.7,029.9,000.0,039.2,032.4,020.2,0000.0,0004.98,0015.02,0003.86
2024-05-31 09:07:00,SystemResetWarning,0830.0,5.00,000.00,030.7,029.9,000.0,039.2,032.4,020.2,0000.0,0004.93,0014.77,0003.86
2024-05-31 09:08:00,SystemResetWarning,0830.1,5.00,000.00,030.7,029.9,000.0,039.2,032.4,020.2,0000.0,0004.94,0015.27,0003.87
2024-05-31 09:09:00,SystemResetWarning,0830.1,4.99,000.00,030.7,029.9,000.0,039.2,032.4,020.3,0000.0,0004.89,0014.43,0003.86
2024-05-31 09:10:00,SystemResetWarning,0830.1,5.00,000.00,030.7,029.9,000.0,039.2,032.4,020.4,0000.0,0004.87,0014.31,0003.86
2024-05-31 09:11:00,SystemResetWarning,0830.1,5.01,000.00,030.7,029.9,000.0,039.2,032.4,020.4,0000.0,0004.87,0013.76,0003.85
2024-05-31 09:12:00,SystemResetWarning,0830.2,5.01,000.00,030.7,029.9,000.0,039.2,032.4,020.4,0000.0,0004.87,0013.99,0003.86
2024-05-31 09:13:00,SystemResetWarning,0830.3,4.99,000.00,030.7,029.9,000.0,039.1,032.4,020.5,0000.0,0004.84,0014.04,0003.86
2024-05-31 09:14:00,SystemResetWarning,0830.2,5.00,000.00,030.7,029.9,000.0,039.2,032.4,020.6,0000.0,0004.85,0013.83,0003.87
2024-05-31 09:15:00,SystemResetWarning,0830.3,5.00,000.00,030.7,029.9,000.0,039.2,032.4,020.6,0000.0,0004.82,0013.25,0003.86
2024-05-31 09:16:00,SystemResetWarning,0830.3,5.00,000.00,030.7,029.9,000.0,039.2,032.4,020.5,0000.0,0004.84,0012.83,0003.86
2024-05-31 09:17:00,SystemResetWarning,0830.3,5.00,000.00,030.7,029.9,000.0,039.1,032.4,020.4,0000.0,0004.86,0013.49,0003.86
2024-05-31 09:18:00,SystemResetWarning,0830.3,5.00,000.00,030.7,029.9,000.0,039.2,032.4,020.4,0000.0,0004.89,0014.34,0003.86
2024-05-31 09:19:00,SystemResetWarning,0830.4,4.99,000.00,030.7,029.9,000.0,039.1,032.4,020.5,0000.0,0004.92,0014.50,0003.86
2024-05-31 09:20:00,SystemResetWarning,0830.5,5.00,000.00,030.7,029.9,000.0,039.1,032.4,020.5,0000.0,0004.93,0014.77,0003.87
2024-05-31 09:21:00,SystemResetWarning,0830.4,5.01,000.00,030.7,029.9,000.0,039.1,032.4,020.6,0000.0,0004.94,0014.61,0003.87
2024-05-31 09:22:00,SystemResetWarning,0830.5,5.01,000.00,030.7,029.9,000.0,039.1,032.3,020.7,0000.0,0004.96,0015.78,0003.88
2024-05-31 09:23:00,SystemResetWarning,0830.6,5.00,000.00,030.7,029.9,000.0,039.1,032.4,020.8,0000.0,0004.99,0015.87,0003.89
2024-05-31 09:24:00,SystemResetWarning,0830.5,5.00,000.00,030.7,029.9,000.0,039.1,032.4,020.7,0000.0,0004.99,0016.04,0003.88
2024-05-31 09:25:00,SystemResetWarning,0830.5,4.99,000.00,030.7,029.9,000.0,039.2,032.4,020.7,0000.0,0004.94,0015.28,0003.87
2024-05-31 09:26:00,SystemResetWarning,0830.4,4.99,000.00,030.7,029.9,000.0,039.2,032.4,020.8,0000.0,0004.92,0016.05,0003.87
2024-05-31 09:27:00,SystemResetWarning,0830.5,5.01,000.00,030.7,029.9,000.0,039.2,032.4,020.9,0000.0,0005.02,0016.61,0003.89
2024-05-31 09:28:00,SystemResetWarning,0830.4,5.01,000.00,030.7,029.9,000.0,039.2,032.4,021.0,0000.0,0005.18,0017.50,0003.91
2024-05-31 09:29:00,SystemResetWarning,0830.6,5.01,000.00,030.7,029.9,000.0,039.2,032.4,021.2,0000.0,0005.22,0017.77,0003.90
2024-05-31 09:30:00,SystemResetWarning,0830.5,5.00,000.00,030.7,029.9,000.0,039.2,032.4,021.2,0000.0,0005.22,0018.49,0003.87
2024-05-31 09:31:00,SystemResetWarning,0830.6,4.99,000.00,030.7,029.9,000.0,039.2,032.4,021.4,0000.0,0005.23,0018.43,0003.84
2024-05-31 09:32:00,SystemResetWarning,0830.6,4.99,000.00,030.7,029.9,000.0,039.2,032.4,021.4,0000.0,0005.21,0018.51,0003.80
2024-05-31 09:33:00,SystemResetWarning,0830.6,5.01,000.00,030.7,029.9,000.0,039.2,032.4,021.5,0000.0,0005.15,0017.44,0003.75
2024-05-31 09:34:00,SystemResetWarning,0830.7,5.01,000.00,030.7,029.9,000.0,039.2,032.4,021.6,0000.0,0005.04,0016.70,0003.69
2024-05-31 09:35:00,SystemResetWarning,0830.7,5.01,000.00,030.7,029.9,000.0,039.2,032.4,021.7,0000.0,0004.95,0016.83,0003.63
2024-05-31 09:36:00,SystemResetWarning,0830.8,5.00,000.00,030.7,029.9,000.0,039.2,032.4,021.7,0000.0,0004.89,0017.17,0003.59
2024-05-31 09:37:00,SystemResetWarning,0830.8,5.00,000.00,030.7,029.9,000.0,039.2,032.4,021.8,0000.0,0004.84,0016.39,0003.55
2024-05-31 09:38:00,SystemResetWarning,0830.9,4.99,000.00,030.7,029.9,000.0,039.2,032.4,022.0,0000.0,0004.71,0015.99,0003.47
2024-05-31 09:39:00,SystemResetWarning,0830.9,5.00,000.00,030.7,029.9,000.0,039.2,032.4,022.1,0000.0,0004.47,0014.97,0003.40
2024-05-31 09:40:00,SystemResetWarning,0830.9,4.99,000.00,030.7,029.9,000.0,039.2,032.4,022.2,0000.0,0004.34,0013.96,0003.34
2024-05-31 09:41:00,SystemResetWarning,0830.9,5.00,000.00,030.7,029.9,000.0,039.2,032.4,022.2,0000.0,0004.22,0013.60,0003.30
2024-05-31 09:42:00,SystemResetWarning,0831.0,5.01,000.00,030.7,029.9,000.0,039.2,032.4,022.2,0000.0,0004.13,0012.86,0003.26
2024-05-31 09:43:00,SystemResetWarning,0831.1,5.01,000.00,030.7,029.9,000.0,039.2,032.4,022.2,0000.0,0004.06,0012.29,0003.23
2024-05-31 09:44:00,SystemResetWarning,0831.1,5.00,000.00,030.7,029.9,000.0,039.2,032.4,022.3,0000.0,0004.04,0012.88,0003.21
2024-05-31 09:45:00,SystemResetWarning,0831.1,4.99,000.00,030.7,029.9,000.0,039.2,032.4,022.2,0000.0,0004.06,0012.95,0003.20
2024-05-31 09:46:00,SystemResetWarning,0831.2,4.99,000.00,030.7,029.9,000.0,039.2,032.4,022.2,0000.0,0004.06,0012.49,0003.18
2024-05-31 09:47:00,SystemResetWarning,0831.1,5.01,000.00,030.7,029.9,000.0,039.2,032.4,022.2,0000.0,0004.08,0012.22,0003.16
2024-05-31 09:48:00,SystemResetWarning,0831.1,5.01,000.00,030.7,029.9,000.0,039.2,032.4,022.3,0000.0,0004.10,0012.79,0003.15
2024-05-31 09:49:00,SystemResetWarning,0831.1,4.98,000.00,030.7,029.9,000.0,039.2,032.4,022.2,0000.0,0004.09,0012.15,0003.16
2024-05-31 09:50:00,SystemResetWarning,0831.1,4.99,000.00,030.7,029.9,000.0,039.2,032.4,022.0,0000.0,0004.10,0011.87,0003.15
2024-05-31 09:51:00,SystemResetWarning,0831.2,5.00,000.00,030.7,029.8,000.0,039.2,032.4,021.8,0000.0,0004.10,0011.85,0003.14
2024-05-31 09:52:00,SystemResetWarning,0831.2,5.01,000.00,030.7,029.8,000.0,039.2,032.4,021.7,0000.0,0004.08,0011.93,0003.13
2024-05-31 09:53:00,SystemResetWarning,0831.2,5.01,000.00,030.7,029.8,000.0,039.2,032.4,021.6,0000.0,0004.04,0012.24,0003.11
2024-05-31 09:54:00,SystemResetWarning,0831.1,5.01,000.00,030.7,029.8,000.0,039.2,032.4,021.6,0000.0,0003.99,0012.28,0003.10
2024-05-31 09:55:00,SystemResetWarning,0831.1,5.00,000.00,030.7,029.8,000.0,039.2,032.4,021.4,0000.0,0003.94,0011.73,0003.07
2024-05-31 09:56:00,SystemResetWarning,0831.1,4.99,000.00,030.7,029.8,000.0,039.2,032.3,021.4,0000.0,0003.91,0011.97,0003.02
2024-05-31 09:57:00,SystemResetWarning,0831.1,4.99,000.00,030.7,029.8,000.0,039.2,032.4,021.5,0000.0,0003.90,0011.82,0002.99
2024-05-31 09:58:00,SystemResetWarning,0831.2,4.99,000.00,030.6,029.8,000.0,039.2,032.4,021.3,0000.0,0003.89,0011.65,0002.97
2024-05-31 09:59:00,SystemResetWarning,0831.2,5.00,000.00,030.6,029.8,000.0,039.2,032.4,021.4,0000.0,0003.87,0010.85,0002.92
